Starlink 1561

decayed
NORAD ID: 46056 Int'l Des: 2020-055 Owner: SPXS Country: US Constellation: starlink
LEOCIRCULAR
グループ

Starlink 1561について

説明を読み込み中...

高度履歴

Altitude vs Time

uPlot chart will show altitude changes over time

軌道要素

1 46056U 20055AF 23318.26393810 .07955485 12169-4 95673-3 0 9991
2 46056 53.0058 208.4414 0008270 234.3093 224.8826 16.35546657182425
Epoch: Nov 14, 2023 • Age: 18251 hours

現在のステータス

Position data unavailable
打ち上げ日 Aug 7, 2020
運用期間 5.3 years
落下予定日 Nov 14, 2023
タイプ internet

技術仕様

分類 Payload
質量 260.00 kg
乾燥質量 248.00 kg
総質量 260.00 kg
長さ 0.20 m
直径 2.80 m
スパン 9.00 m
形状 Box + pan
製造者 SPXS
バスタイプ Starlink
フェーズステータス Unknown Transfer Status
所有者/国 SPXS/US

大規模コンステレーション

Loading constellations...